sat.trackr.live / text

‹ back to catalog

UNKNOWN

NORAD 81478

UNKNOWN UNKNOWN UNKNOWN

§ Identity

Operator
Country
Launch date
Launch site
Launch vehicle
Mass (kg)
RCS (m²)

External: N2YO · Heavens-Above

§ Orbital elements

Epoch: 2026-09-18T06:48:19.088064Z

Period
100.68 min
Inclination
98.9471°
Eccentricity
0.0141400
Mean motion
14.30268167 rev/d
Perigee alt
689.5 km
Apogee alt
892.2 km
Semi-major
7,169.0 km
B*
7.9193e-4
RAAN
185.8258°
Arg perigee
266.5955°
Mean anomaly
248.2625°
Rev number
66,287

§ Raw data

UNKNOWN1 81478U          26261.28355426  .00002240  00000+0  79193-3 0  99992 81478  98.9471 185.8258 0141400 266.5955 248.2625 14.30268167662879

JSON: /api/v1/satellites/81478 · /tle

For live sub-satellite position, see the globe view (requires WebGL).

§ Visibility from observer

Set your observer location to see the next 7 days of passes ≥ 10°. The values pass through the URL so the page stays shareable.

No JS? Fill the form by hand. The geolocation button needs JavaScript.